| time (UTC) | temp F | wind direction | speed knots | gust knots | rain 1hr in | rain 24hr in | rain mn in | humidity % | barometer mb |
| 20260504204553 | 76 | 140 | 0.0 | 3.5 | 0.00 | 0.00 | 0.00 | 36 | 1011.7 |
| 20260504203047 | 76 | 150 | 0.0 | 6.1 | 0.00 | 0.00 | 0.00 | 35 | 1011.9 |
| 20260504201548 | 76 | 141 | 0.9 | 7.8 | 0.00 | 0.00 | 0.00 | 35 | 1012.0 |
| 20260504200040 | 77 | 188 | 0.0 | 1.7 | 0.00 | 0.00 | 0.00 | 36 | 1012.2 |
| 20260504194558 | 77 | 188 | 0.9 | 6.1 | 0.00 | 0.00 | 0.00 | 35 | 1012.4 |
| 20260504193037 | 78 | 188 | 0.0 | 3.5 | 0.00 | 0.00 | 0.00 | 36 | 1012.5 |
| 20260504191545 | 77 | 194 | 0.0 | 2.6 | 0.00 | 0.00 | 0.00 | 36 | 1012.7 |
| 20260504190043 | 78 | 194 | 0.0 | 5.2 | 0.00 | 0.00 | 0.00 | 36 | 1013.1 |
| 20260504184537 | 77 | 195 | 0.0 | 5.2 | 0.00 | 0.00 | 0.00 | 35 | 1013.2 |
| 20260504183028 | 77 | 194 | 0.0 | 4.3 | 0.00 | 0.00 | 0.00 | 36 | 1013.4 |
| 20260504181526 | 76 | 192 | 0.0 | 2.6 | 0.00 | 0.00 | 0.00 | 37 | 1013.6 |
| 20260504180023 | 75 | 192 | 0.0 | 0.0 | 0.00 | 0.00 | 0.00 | 37 | 1013.5 |
| 20260504174522 | 75 | 193 | 0.9 | 7.0 | 0.00 | 0.00 | 0.00 | 37 | 1013.5 |
| 20260504173021 | 75 | 196 | 0.0 | 1.7 | 0.00 | 0.00 | 0.00 | 36 | 1013.9 |
| 20260504171520 | 75 | 196 | 0.9 | 5.2 | 0.00 | 0.00 | 0.00 | 37 | 1014.1 |
| 20260504081555 | 40 | 186 | 0.0 | 0.0 | 0.00 | 0.00 | 0.00 | 90 | 1015.4 |
| 20260504044533 | 45 | 186 | 0.0 | 0.0 | 0.00 | 0.00 | 0.00 | 81 | 1015.6 |
| 20260504043031 | 45 | 186 | 0.0 | 0.0 | 0.00 | 0.00 | 0.00 | 79 | 1015.3 |
| 20260504041529 | 46 | 186 | 0.0 | 0.0 | 0.00 | 0.00 | 0.00 | 78 | 1015.4 |
| 20260504040030 | 46 | 186 | 0.0 | 0.0 | 0.00 | 0.00 | 0.00 | 77 | 1015.5 |
| 20260504034538 | 46 | 186 | 0.0 | 0.0 | 0.00 | 0.00 | 0.00 | 75 | 1015.2 |
| 20260504033029 | 47 | 186 | 0.0 | 0.0 | 0.00 | 0.00 | 0.00 | 74 | 1015.3 |
| 20260504031524 | 47 | 186 | 0.0 | 0.0 | 0.00 | 0.00 | 0.00 | 74 | 1015.3 |
| 20260504030035 | 48 | 186 | 0.0 | 0.0 | 0.00 | 0.00 | 0.00 | 72 | 1015.3 |
| 20260504024524 | 48 | 186 | 0.0 | 0.0 | 0.00 | 0.00 | 0.00 | 72 | 1015.4 |
| 20260504023023 | 49 | 186 | 0.0 | 0.0 | 0.00 | 0.00 | 0.00 | 70 | 1015.4 |
| 20260504021522 | 49 | 186 | 0.0 | 0.0 | 0.00 | 0.00 | 0.00 | 68 | 1015.4 |
| 20260504020021 | 50 | 186 | 0.0 | 0.0 | 0.00 | 0.00 | 0.00 | 67 | 1015.0 |
| 20260504014523 | 50 | 186 | 0.0 | 0.0 | 0.00 | 0.00 | 0.00 | 66 | 1014.9 |
| 20260504013022 | 51 | 186 | 0.0 | 0.0 | 0.00 | 0.00 | 0.00 | 63 | 1014.6 |
| 20260504011522 | 53 | 186 | 0.0 | 0.0 | 0.00 | 0.00 | 0.00 | 61 | 1014.6 |
| 20260504010019 | 54 | 186 | 0.0 | 0.0 | 0.00 | 0.00 | 0.00 | 57 | 1014.3 |
| 20260504004522 | 55 | 186 | 0.0 | 0.0 | 0.00 | 0.00 | 0.00 | 57 | 1014.2 |
| 20260504003019 | 56 | 186 | 0.0 | 0.0 | 0.00 | 0.00 | 0.00 | 54 | 1014.0 |
| 20260504001519 | 58 | 186 | 0.0 | 0.0 | 0.00 | 0.00 | 0.00 | 51 | 1014.1 |
| 20260504000018 | 59 | 186 | 0.0 | 0.0 | 0.00 | 0.00 | 0.00 | 45 | 1014.0 |
| 20260503234522 | 61 | 186 | 0.0 | 0.0 | 0.00 | 0.00 | 0.00 | 45 | 1013.7 |
| 20260503233017 | 63 | 186 | 0.0 | 0.0 | 0.00 | 0.00 | 0.00 | 42 | 1013.8 |
| 20260503231519 | 64 | 186 | 0.0 | 2.6 | 0.00 | 0.00 | 0.00 | 36 | 1013.9 |
| 20260503230018 | 65 | 186 | 0.0 | 1.7 | 0.00 | 0.00 | 0.00 | 34 | 1013.8 |
| 20260503224514 | 66 | 186 | 0.0 | 0.0 | 0.00 | 0.00 | 0.00 | 33 | 1013.7 |
| 20260503223022 | 66 | 178 | 0.0 | 3.5 | 0.00 | 0.00 | 0.00 | 33 | 1014.0 |
| 20260503221514 | 66 | 178 | 0.9 | 6.1 | 0.00 | 0.00 | 0.00 | 33 | 1014.2 |
| 20260503220012 | 66 | 177 | 0.0 | 0.0 | 0.00 | 0.00 | 0.00 | 30 | 1014.4 |
| 20260503214510 | 66 | 177 | 0.0 | 1.7 | 0.00 | 0.00 | 0.00 | 31 | 1014.5 |
| 20260503213009 | 66 | 177 | 0.0 | 0.9 | 0.00 | 0.00 | 0.00 | 33 | 1014.7 |
| 20260503211515 | 66 | 177 | 0.9 | 7.8 | 0.00 | 0.00 | 0.00 | 31 | 1014.9 |